Weather History for KBML - July, 2012

Change the Weather History Date:

Thursday, July 19, 2012

  Actual Average Record
Temperature  
Mean Temperature 58 °F -  
Max Temperature 72 °F 74 °F 91 °F (2005)
Min Temperature 44 °F 48 °F 43 °F (2003)
Degree Days  
Heating Degree Days 8    
Growing Degree Days 8 (Base 50)    
Moisture  
Dew Point 46 °F    
Average Humidity 80    
Maximum Humidity 100    
Minimum Humidity 40    
Precipitation  
Precipitation 0.00 in - - ()
Sea Level Pressure  
Sea Level Pressure 30.01 in    
Wind  
Wind Speed 1 mph (NNW)    
Max Wind Speed 14 mph    
Max Gust Speed 20 mph    
Visibility 6 miles    
Events Fog    
Averages and records for this station are not official NWS values.
T = Trace of Precipitation, MM = Missing Value Source: NWS Daily Summary

Daily Weather History Graph

Daily Weather History Graph

Search for Another Location

Airport or City:

Trip Planner

Search our weather history database for the weather conditions in past years. The results will help you decide how hot, cold, wet, or windy it might be!

Date:

Astronomy

Jul. 19, 2012 Rise Set
Actual Time 5:18 AM EDT 8:23 PM EDT
Civil Twilight 4:43 AM EDT 8:58 PM EDT
Nautical Twilight 3:57 AM EDT 9:43 PM EDT
Astronomical Twilight 3:03 AM EDT 10:37 PM EDT
Moon 5:53 AM EDT (7/19) 8:22 PM EDT (7/19)
Length of Visible Light 16h 15m
Length of Day
15h 05m
New Moon, 0% of the Moon is Illuminated
Jul 19
New Moon
Jul 26
First Quarter
Aug 1
Full
Aug 9
Last Quarter
Aug 17
New

Hourly Weather History & Observations

Time (EDT) Temp. Windchill Dew Point Humidity Pressure Visibility Wind Dir Wind Speed Gust Speed Precip Events Conditions
12:49 AM 48.2 °F - 46.4 °F 93% 29.98 in 10.0 mi Calm Calm - N/A   Partly Cloudy
12:52 AM 48.9 °F - 46.9 °F 93% 29.98 in 10.0 mi Calm Calm - N/A   Partly Cloudy
1:52 AM 46.9 °F - 45.0 °F 93% 29.98 in 10.0 mi Calm Calm - N/A   Scattered Clouds
2:01 AM 46.4 °F - 44.6 °F 93% 29.98 in 10.0 mi Calm Calm - N/A   Mostly Cloudy
2:13 AM 48.2 °F - 46.4 °F 93% 29.98 in 5.0 mi Calm Calm - N/A   Scattered Clouds
2:22 AM 46.4 °F - 44.6 °F 93% 29.98 in 8.0 mi Calm Calm - N/A   Mostly Cloudy
2:50 AM 48.2 °F - 46.4 °F 93% 29.98 in 1.2 mi Calm Calm - N/A   Overcast
2:52 AM 48.0 °F - 46.0 °F 93% 29.98 in 0.8 mi Calm Calm - N/A   Mist
3:00 AM 46.4 °F - 44.6 °F 93% 29.98 in 1.5 mi Calm Calm - N/A   Mostly Cloudy
3:02 AM 46.4 °F - 44.6 °F 93% 29.98 in 5.0 mi Calm Calm - N/A   Scattered Clouds
3:40 AM 44.6 °F - 42.8 °F 93% 29.99 in 5.0 mi Calm Calm - N/A   Mostly Cloudy
3:42 AM 44.6 °F - 42.8 °F 93% 29.99 in 1.0 mi Calm Calm - N/A   Mist
3:44 AM 44.6 °F - 44.6 °F 100% 29.99 in 0.2 mi Calm Calm - N/A Fog Fog
3:52 AM 45.0 °F - 44.1 °F 97% 29.99 in 0.2 mi Calm Calm - N/A Fog Fog
4:41 AM 46.4 °F - 44.6 °F 93% 30.00 in 0.8 mi Calm Calm - N/A   Mist
4:52 AM 45.0 °F - 45.0 °F 100% 30.00 in 0.2 mi Calm Calm - N/A Fog Fog
5:04 AM 44.6 °F - 44.6 °F 100% 30.00 in 1.0 mi Calm Calm - N/A   Mist
5:07 AM 44.6 °F - 44.6 °F 100% 29.99 in 2.0 mi Calm Calm - N/A   Mostly Cloudy
5:23 AM 44.6 °F - 42.8 °F 93% 30.00 in 1.0 mi Calm Calm - N/A   Mostly Cloudy
5:26 AM 44.6 °F 43.1 °F 42.8 °F 93% 30.00 in 0.2 mi SSE 3.5 mph - N/A Fog Fog
5:52 AM 46.9 °F - 46.0 °F 97% 30.01 in 0.2 mi Calm Calm - N/A Fog Fog
6:52 AM 48.9 °F - 48.0 °F 97% 30.02 in 0.5 mi Calm Calm - N/A Fog Fog
7:02 AM 48.2 °F - 48.2 °F 100% 30.02 in 0.2 mi Calm Calm - N/A Fog Fog
7:38 AM 51.8 °F - 51.8 °F 100% 30.02 in 0.8 mi Calm Calm - N/A   Overcast
7:52 AM 52.0 °F - 51.1 °F 97% 30.02 in 1.5 mi Calm Calm - N/A   Mostly Cloudy
8:01 AM 53.6 °F - 51.8 °F 94% 30.02 in 2.0 mi Calm Calm - N/A   Scattered Clouds
8:24 AM 59.0 °F - 50.0 °F 72% 30.02 in 3.0 mi Calm Calm - N/A   Haze
8:52 AM 62.1 °F - 48.0 °F 60% 30.02 in 10.0 mi Variable 3.5 mph - N/A   Clear
9:52 AM 66.0 °F - 46.0 °F 48% 30.02 in 10.0 mi NW 6.9 mph - N/A   Clear
10:52 AM 66.0 °F - 46.0 °F 48% 30.03 in 10.0 mi Calm Calm - N/A   Mostly Cloudy
11:52 AM 68.0 °F - 43.0 °F 40% 30.02 in 10.0 mi NNW 8.1 mph - N/A   Mostly Cloudy
12:52 PM 70.0 °F - 46.0 °F 42% 30.01 in 10.0 mi NNW 6.9 mph - N/A   Mostly Cloudy
1:52 PM 70.0 °F - 46.0 °F 42% 30.01 in 10.0 mi NW 5.8 mph - N/A   Mostly Cloudy
2:52 PM 71.1 °F - 46.9 °F 42% 30.00 in 10.0 mi NNW 13.8 mph 18.4 mph N/A   Mostly Cloudy
3:52 PM 71.1 °F - 46.9 °F 42% 30.00 in 10.0 mi NNW 8.1 mph - N/A   Mostly Cloudy
4:52 PM 71.1 °F - 46.9 °F 42% 30.01 in 10.0 mi NW 6.9 mph - N/A   Mostly Cloudy
5:52 PM 70.0 °F - 46.9 °F 44% 30.01 in 10.0 mi Variable 6.9 mph - N/A   Clear
6:52 PM 68.0 °F - 46.0 °F 45% 30.02 in 10.0 mi Variable 4.6 mph 19.6 mph N/A   Clear
7:52 PM 66.0 °F - 48.0 °F 52% 30.03 in 10.0 mi NNW 4.6 mph - N/A   Clear
8:52 PM 57.9 °F - 50.0 °F 75% 30.05 in 10.0 mi Calm Calm - N/A   Clear
9:52 PM 51.1 °F - 48.0 °F 89% 30.08 in 10.0 mi Calm Calm - N/A   Clear
10:52 PM 51.1 °F - 48.0 °F 89% 30.09 in 10.0 mi Calm Calm - N/A   Clear
11:52 PM 45.0 °F 42.6 °F 44.1 °F 97% 30.10 in 10.0 mi SE 4.6 mph - N/A   Clear